Wind_Speed
19 12 7 5 5 4 4 2 2 3 4 5 7 9 10 11 12 12 12 12 12 12 12 11 12 12 12 12 12 12 12 11 11 10 9 8 7 6 5 4 3 3
22 14 11 9 7 6 5 5 5 5 5 6 8 10 12 13 14 15 15 15 15 15 15 16 16 16 16 16 16 15 15 14 14 13 12 12 11 10 9 8 7 7
23 17 13 11 9 7 6 6 7 6 6 6 7 9 10 12 14 15 16 16 16 16 16 16 16 16 16 16 15 15 14 14 13 13 13 13 12 11 11 10 9 9
24 19 15 14 12 10 9 8 7 7 7 6 6 7 8 10 11 12 13 13 14 14 14 14 14 14 13 13 13 12 12 12 12 12 11 11 11 11 10 9 9 8
24 20 17 18 17 14 13 12 10 9 8 7 6 6 7 8 8 9 9 9 10 10 11 11 11 11 10 9 9 8 8 8 8 8 8 8 8 8 9 8 8 8
25 23 20 21 21 19 17 16 14 13 12 10 8 7 6 6 6 7 7 8 8 7 7 7 7 6 6 5 5 4 4 4 4 4 4 4 4 5 5 6 7 7
28 25 23 24 23 22 20 19 19 17 16 14 12 9 8 6 6 6 7 7 7 6 6 5 5 4 3 3 3 2 2 1 1 1 1 2 2 3 4 5 6 7
28 26 25 25 24 24 23 23 23 20 18 17 14 12 9 8 8 8 9 9 9 8 8 7 7 7 6 6 6 6 7 7 7 6 6 6 6 6 7 7 8 8
30 29 29 26 24 24 25 25 25 22 20 19 17 15 13 11 10 9 10 11 11 12 11 11 12 11 11 10 10 10 10 11 11 11 11 11 10 11 11 11 11 11
33 33 30 28 28 28 27 27 25 22 21 21 19 18 16 15 14 13 12 11 12 13 13 13 14 14 14 14 14 13 12 12 12 13 13 13 12 13 13 13 13 13
35 34 32 30 32 32 29 27 25 22 21 20 19 18 18 18 18 17 16 14 13 14 15 15 14 14 15 16 15 15 15 14 14 14 15 14 14 15 15 14 15 15
32 31 32 30 30 31 29 27 25 24 21 20 18 18 18 18 17 17 17 16 15 16 20 21 18 17 18 19 20 20 19 18 17 17 17 17 17 17 16 15 15 16
27 29 32 32 31 30 28 26 26 25 24 22 20 18 17 17 17 18 19 19 17 16 19 22 22 21 22 24 27 27 23 19 19 18 18 18 18 19 18 17 17 18
24 27 29 28 29 29 27 26 26 25 24 24 22 20 17 16 18 21 23 23 23 22 21 21 21 21 21 24 28 29 24 20 19 18 17 17 17 18 19 19 20 20
19 22 22 22 22 24 24 23 20 19 20 21 21 18 16 16 19 22 22 22 22 23 23 21 19 18 17 17 21 26 26 24 22 19 17 17 17 17 18 19 20 21
11 13 15 15 15 17 19 17 14 14 16 17 17 16 15 16 18 20 21 21 21 20 19 17 16 15 14 13 15 19 23 25 25 24 23 22 21 22 21 20 20 22
8 8 9 10 11 13 13 12 11 12 13 14 14 15 16 17 18 19 20 19 18 16 14 13 12 11 12 13 14 16 18 21 22 24 25 25 25 25 25 23 23 24
9 8 8 9 9 9 9 9 10 11 12 14 15 16 16 15 14 13 13 13 12 12 12 11 12 13 14 16 17 18 20 21 22 23 25 26 26 27 26 26 27 28
9 9 9 8 8 10 11 12 13 14 14 15 15 14 14 13 12 12 13 13 13 14 14 15 16 17 18 19 21 22 23 24 24 25 26 27 28 28 28 28 29 29
12 12 12 12 13 14 15 15 15 15 15 14 14 14 14 14 15 16 17 18 19 20 20 20 20 20 21 23 24 25 26 26 25 26 27 28 29 29 29 30 30 30
17 16 17 17 17 16 16 16 16 17 16 15 15 15 16 17 17 18 19 21 22 22 22 22 22 23 24 25 26 26 26 27 27 27 28 28 29 29 28 29 31 31
20 19 19 18 17 17 16 16 16 16 16 15 15 16 16 17 18 18 19 20 20 20 20 20 21 22 23 24 24 25 26 26 27 27 27 27 28 28 27 28 29 30
21 20 19 18 17 17 16 16 16 15 15 15 15 16 17 18 19 20 20 21 22 22 21 21 22 23 24 24 24 25 26 27 27 27 27 27 26 26 26 27 28 29
22 21 20 20 19 18 18 18 17 17 17 17 18 19 19 20 21 22 22 23 24 24 24 23 23 24 24 24 24 24 25 26 26 26 27 27 27 26 26 26 27 29
24 23 23 22 22 22 22 22 20 20 19 20 20 21 22 23 23 24 24 25 26 25 25 24 24 24 25 26 25 25 25 26 27 27 27 28 28 28 28 28 29 30
23 23 23 23 23 23 24 25 24 23 22 22 22 22 23 24 25 25 24 25 26 26 26 25 25 26 27 27 28 28 28 29 29 29 29 30 30 30 30 31 31 32
Wind_Direction
220 209 178 175 189 205 216 202 171 150 139 135 124 120 120 119 121 123 124 126 127 127 126 122 118 114 110 107 105 104 103 103 102 102 103 104 105 107 105 100 93 93
218 202 172 170 186 202 204 174 161 156 143 136 126 120 119 118 118 117 118 119 119 119 117 114 112 108 105 103 101 100 98 97 95 93 92 90 88 87 85 83 82 79
221 209 174 167 180 190 198 183 174 169 154 145 135 127 122 120 119 119 119 120 120 119 118 116 114 112 110 108 105 103 100 97 95 92 88 85 82 80 77 77 78 76
223 218 182 170 181 187 193 191 189 181 164 158 153 145 137 130 126 124 124 125 124 125 123 122 121 118 116 114 111 109 105 101 97 93 88 83 77 73 68 63 60 57
221 220 194 180 185 192 199 197 195 187 173 170 172 169 162 152 145 140 138 137 133 133 132 130 129 127 125 122 118 114 109 104 100 94 87 81 73 66 60 50 42 37
222 222 207 191 188 194 203 204 202 196 189 188 187 189 193 189 185 174 165 163 158 154 151 148 146 145 143 143 141 135 128 118 105 94 83 72 60 48 42 30 20 15
228 226 210 196 193 197 204 209 210 205 201 201 198 200 211 224 231 223 213 205 196 192 190 186 189 194 202 219 233 248 260 277 302 336 342 338 343 344 344 342 340 339
228 222 207 199 198 202 207 212 214 213 211 210 209 211 219 232 243 246 247 243 236 232 229 232 241 243 249 262 269 279 289 295 299 302 302 300 301 302 302 305 307 310
224 216 204 201 207 212 214 217 217 215 215 218 220 222 227 234 240 246 253 257 257 257 255 254 257 258 258 262 267 273 281 287 289 292 293 293 296 297 295 295 295 295
222 217 210 207 212 217 219 222 223 219 217 220 224 229 233 238 243 245 251 257 258 257 259 262 265 267 267 267 266 265 266 270 274 278 281 282 285 288 290 290 291 291
220 220 220 217 216 217 217 220 223 222 221 223 226 231 235 240 247 251 255 259 254 247 251 259 261 263 267 269 267 263 259 260 262 265 268 271 274 276 278 279 283 286
224 225 227 225 223 223 221 222 223 222 223 227 231 235 241 247 254 260 262 261 257 252 255 260 259 257 259 262 264 265 261 256 254 255 258 263 267 267 267 268 272 279
235 235 231 227 225 225 227 231 232 229 224 226 231 236 245 254 260 265 267 265 265 265 264 265 267 266 264 261 260 260 257 249 244 245 249 256 262 265 265 267 271 278
249 246 241 236 231 229 230 232 238 242 237 232 234 237 242 253 264 271 273 272 273 274 273 274 275 274 270 263 254 249 243 234 232 236 240 246 255 261 264 267 272 276
255 253 248 244 240 241 241 238 243 253 253 249 253 257 260 267 273 275 277 278 279 279 279 279 277 273 271 267 254 245 241 236 234 237 244 251 259 266 267 269 273 276
252 248 241 239 243 250 256 257 254 253 254 259 268 274 275 274 272 272 275 278 279 278 276 273 271 271 272 271 263 254 252 249 244 245 251 257 263 271 276 278 277 277
236 228 221 222 231 242 250 253 250 245 248 255 261 263 264 264 264 266 270 270 268 264 264 265 268 271 271 269 266 263 262 260 254 252 255 258 263 271 279 282 281 280
231 216 207 209 220 234 243 246 247 246 244 246 249 250 250 251 251 252 253 254 253 254 259 265 269 272 273 273 272 271 270 271 269 268 267 268 272 275 279 282 282 283
232 220 214 222 235 247 250 248 246 244 240 240 239 237 236 234 235 238 244 249 254 257 261 266 270 272 272 272 273 274 274 275 276 277 277 277 279 280 281 282 281 281
224 226 233 245 252 254 253 250 246 243 241 239 237 238 241 244 247 251 255 258 261 263 266 268 269 269 268 270 272 274 275 276 277 278 278 279 279 280 281 281 279 277
231 239 248 254 255 254 254 252 248 245 245 245 247 249 250 252 254 255 256 259 262 265 267 268 267 267 267 269 270 272 274 276 277 278 279 279 279 278 276 274 273 275
243 247 251 253 252 252 253 252 249 247 248 248 250 252 253 254 255 256 257 259 263 266 269 270 270 269 269 270 271 272 273 274 276 277 277 277 277 277 275 271 270 272
244 246 247 247 248 249 250 249 249 249 250 251 252 254 256 258 259 261 263 266 269 271 273 274 274 274 273 273 273 272 272 272 273 274 274 275 276 277 276 275 273 272
240 239 239 241 243 245 245 245 246 247 250 253 256 258 259 261 263 265 267 269 271 273 272 271 271 270 270 271 271 271 271 271 272 273 274 275 276 277 277 277 276 275
244 240 238 237 238 240 242 242 242 245 249 254 258 261 263 264 266 267 268 269 270 271 271 270 269 268 268 268 270 271 272 273 274 275 276 277 278 278 279 279 278 278
249 246 243 239 237 237 240 241 241 242 246 252 257 261 263 266 269 271 272 272 271 271 271 271 272 273 273 273 273 273 274 276 276 277 278 279 280 281 281 281 281 281
Height
3128 3129 3130 3130 3130 3131 3131 3131 3131 3131 3131 3130 3130 3130 3130 3130 3129 3130 3130 3130 3131 3131 3131 3132 3132 3132 3133 3133 3133 3133 3133 3133 3133 3133 3132 3133 3133 3133 3133 3133 3133 3134
3125 3127 3128 3129 3129 3130 3130 3131 3131 3131 3131 3131 3131 3131 3131 3130 3130 3130 3130 3131 3131 3131 3132 3132 3132 3133 3133 3133 3134 3134 3134 3133 3133 3133 3133 3133 3133 3133 3133 3134 3134 3134
3123 3125 3126 3127 3128 3129 3129 3129 3130 3130 3131 3131 3132 3132 3132 3132 3131 3131 3131 3131 3131 3132 3132 3133 3133 3133 3134 3134 3134 3134 3134 3134 3134 3134 3134 3134 3134 3134 3134 3134 3134 3134
3121 3123 3124 3125 3127 3128 3128 3128 3129 3129 3130 3131 3131 3132 3133 3133 3132 3132 3132 3132 3132 3133 3133 3133 3134 3134 3134 3134 3134 3135 3135 3135 3135 3134 3134 3135 3135 3135 3135 3135 3135 3135
3119 3120 3121 3122 3124 3126 3126 3127 3128 3128 3128 3129 3130 3131 3132 3133 3133 3132 3132 3133 3133 3133 3134 3134 3134 3134 3134 3134 3135 3135 3135 3135 3135 3135 3135 3135 3135 3135 3135 3135 3135 3135
3116 3118 3119 3120 3121 3123 3124 3126 3127 3127 3128 3128 3129 3130 3131 3132 3133 3133 3133 3133 3133 3134 3134 3134 3134 3134 3134 3134 3135 3135 3135 3135 3135 3135 3135 3135 3135 3135 3135 3135 3135 3135
3114 3116 3117 3117 3119 3121 3123 3124 3126 3127 3127 3128 3128 3129 3130 3131 3132 3132 3133 3133 3133 3134 3134 3134 3134 3134 3134 3134 3134 3134 3135 3135 3135 3135 3135 3135 3135 3135 3134 3134 3134 3134
3114 3115 3116 3116 3117 3119 3121 3123 3124 3125 3126 3127 3128 3128 3129 3130 3130 3131 3132 3132 3133 3133 3134 3134 3134 3134 3134 3134 3134 3134 3134 3134 3134 3134 3134 3134 3134 3134 3134 3134 3133 3133
3112 3113 3113 3114 3116 3118 3120 3121 3122 3124 3125 3126 3127 3127 3128 3128 3129 3129 3130 3131 3132 3133 3133 3133 3133 3133 3133 3133 3133 3133 3133 3133 3133 3133 3133 3133 3133 3133 3132 3132 3132 3132
3109 3109 3109 3110 3112 3115 3117 3119 3121 3123 3124 3124 3125 3126 3126 3126 3126 3127 3128 3129 3130 3131 3131 3132 3132 3132 3132 3132 3132 3131 3131 3131 3131 3131 3131 3131 3131 3131 3131 3131 3130 3130
3106 3107 3107 3107 3108 3111 3114 3115 3117 3119 3122 3123 3123 3124 3124 3124 3124 3125 3126 3126 3127 3128 3129 3130 3130 3130 3131 3131 3131 3130 3130 3130 3129 3129 3129 3129 3129 3129 3129 3129 3128 3128
3104 3105 3105 3105 3107 3109 3112 3113 3114 3115 3117 3119 3121 3121 3122 3122 3122 3122 3123 3124 3125 3126 3126 3127 3128 3128 3129 3129 3129 3129 3128 3128 3127 3127 3127 3127 3127 3127 3127 3127 3126 3126
3104 3103 3102 3102 3103 3106 3109 3111 3112 3112 3113 3115 3117 3118 3118 3119 3119 3120 3121 3121 3122 3122 3123 3124 3124 3125 3125 3126 3125 3125 3126 3125 3125 3125 3125 3125 3125 3125 3125 3125 3124 3124
3100 3100 3101 3102 3102 3103 3104 3106 3108 3110 3111 3112 3114 3115 3115 3115 3116 3117 3117 3118 3118 3119 3119 3120 3120 3120 3120 3120 3120 3120 3121 3122 3121 3122 3122 3122 3122 3122 3122 3122 3122 3121
3097 3098 3101 3102 3102 3101 3101 3102 3104 3107 3109 3110 3112 3112 3111 3112 3113 3114 3114 3114 3114 3114 3114 3115 3115 3115 3115 3115 3115 3116 3117 3118 3118 3119 3119 3119 3119 3119 3119 3119 3119 3119
3097 3097 3100 3101 3100 3100 3101 3102 3103 3105 3106 3107 3107 3108 3108 3109 3111 3111 3111 3111 3111 3110 3110 3110 3111 3111 3112 3112 3112 3113 3114 3115 3116 3116 3116 3116 3116 3116 3116 3116 3116 3115
3095 3096 3097 3098 3099 3100 3101 3102 3102 3103 3104 3104 3105 3105 3107 3108 3109 3109 3109 3108 3108 3107 3107 3107 3108 3109 3109 3110 3110 3110 3111 3111 3112 3113 3113 3113 3113 3113 3113 3113 3112 3111
3092 3094 3095 3096 3098 3099 3099 3099 3100 3101 3102 3103 3104 3105 3106 3106 3106 3106 3106 3106 3105 3105 3106 3106 3107 3107 3108 3108 3108 3108 3108 3108 3108 3109 3109 3109 3109 3109 3109 3108 3108 3107
3090 3091 3093 3094 3095 3096 3097 3097 3098 3099 3100 3101 3102 3102 3103 3103 3104 3104 3103 3103 3103 3103 3104 3104 3105 3105 3106 3106 3105 3105 3105 3105 3105 3105 3104 3104 3104 3104 3104 3104 3103 3103
3088 3089 3091 3092 3092 3093 3094 3095 3095 3096 3097 3098 3099 3100 3100 3100 3100 3101 3100 3100 3100 3100 3101 3102 3102 3103 3103 3103 3102 3102 3101 3101 3101 3101 3101 3100 3100 3100 3100 3100 3099 3099
3086 3087 3088 3089 3089 3090 3091 3091 3092 3093 3094 3095 3096 3096 3096 3097 3097 3097 3097 3096 3096 3097 3098 3099 3099 3099 3099 3099 3099 3099 3098 3098 3098 3097 3097 3097 3096 3097 3097 3097 3096 3095
3082 3084 3085 3085 3086 3087 3087 3088 3089 3090 3091 3091 3092 3092 3093 3093 3093 3093 3093 3093 3093 3094 3095 3095 3096 3096 3096 3096 3096 3096 3095 3095 3094 3094 3093 3093 3093 3093 3093 3092 3092 3091
3078 3080 3081 3082 3083 3084 3084 3085 3086 3086 3087 3088 3088 3089 3089 3090 3090 3090 3090 3090 3091 3091 3092 3092 3092 3092 3092 3092 3092 3092 3091 3091 3090 3090 3090 3090 3089 3089 3089 3088 3088 3088
3075 3076 3078 3079 3080 3081 3081 3082 3083 3083 3084 3084 3084 3085 3086 3086 3086 3086 3087 3087 3088 3088 3088 3089 3089 3089 3089 3089 3088 3088 3088 3087 3087 3087 3086 3086 3086 3086 3085 3085 3084 3084
3072 3073 3074 3075 3076 3077 3078 3079 3080 3080 3080 3081 3081 3082 3082 3082 3083 3083 3084 3084 3084 3085 3085 3085 3086 3086 3085 3085 3085 3085 3084 3084 3083 3083 3082 3082 3082 3082 3082 3081 3081 3080
3068 3069 3070 3071 3073 3074 3074 3075 3076 3077 3077 3077 3078 3078 3079 3079 3079 3080 3080 3080 3081 3081 3081 3082 3082 3082 3082 3081 3081 3081 3081 3080 3080 3079 3079 3078 3078 3078 3077 3077 3076 3075